ROMMA est une association bénévole à but non lucratif. Votre soutien est indispensable : ADHERER à ROMMA ou FAIRE un DON

Briord - (01, Ain)

Bugey (281 m)   Longitude: 05° 29' 13" E   Latitude: 45° 46' 37" N Station partenaire n°15
 

Détail journalier du     <<     >>

Température Precipitation Humidité Pression Vent Dir Rafale Dir. rafale Ensol.
Heure (°C) (mm) (%) (hPa) (km/h) (km/h) (min)
01:00 21.805210152NE15NE0
02:00 18.8061101505E0
03:00 16.4070101505ESE0
04:00 15.0077101602ESE0
05:00 14.4080101603ESE0
06:00 13.8082101600---0
07:00 13.4084101602SE0
08:00 13.1086101600---0
09:00 13.1087101702SE0
10:00 14.4086101700---0
11:00 20.6066101705ESE0
12:00 21.706710174SSE11S0
13:00 24.505910171SO11ONO0
14:00 25.605510164OSO16O45
15:00 26.605210164O16NNO60
16:00 27.904610155ONO19NO60
17:00 29.404110155ONO18NO60
18:00 29.903810145ONO16NNE60
19:00 30.403710143ONO16ONO60
20:00 30.903910143ONO15O60
21:00 30.603810133NO19ONO55
22:00 30.304010132ONO16ONO0
23:00 27.3048101305NE0
minuit 22.6060101305NNE0

Graphique du 19-07-2019

 

Serveur OMMA